TimeEDT,TemperatureF,Dew PointF,Humidity,Sea Level PressureIn,VisibilityMPH,Wind Direction,Wind SpeedMPH,Gust SpeedMPH,PrecipitationIn,Events,Conditions,WindDirDegrees,DateUTC
12:54 AM,53.1,51.1,93,29.81,-9999.0,North,-9999.0,-,N/A,,Unknown,0,2013-06-15 04:54:00
1:54 AM,51.1,48.9,92,29.82,-9999.0,North,-9999.0,-,N/A,,Unknown,0,2013-06-15 05:54:00
2:54 AM,48.9,46.9,93,29.84,-9999.0,North,-9999.0,-,N/A,,Unknown,0,2013-06-15 06:54:00
3:54 AM,46.9,45.0,93,29.85,-9999.0,North,-9999.0,-,N/A,,Unknown,0,2013-06-15 07:54:00
4:54 AM,46.0,44.1,93,29.88,-9999.0,North,-9999.0,-,N/A,,Unknown,0,2013-06-15 08:54:00
5:54 AM,46.0,44.1,93,29.90,-9999.0,North,-9999.0,-,N/A,,Unknown,0,2013-06-15 09:54:00
6:54 AM,48.0,45.0,89,29.90,-9999.0,North,-9999.0,-,N/A,,Unknown,0,2013-06-15 10:54:00
7:54 AM,53.1,46.0,77,29.91,-9999.0,North,-9999.0,-,N/A,,Unknown,0,2013-06-15 11:54:00
8:54 AM,59.0,43.0,55,29.92,-9999.0,North,-9999.0,-,N/A,,Unknown,0,2013-06-15 12:54:00
9:54 AM,64.9,44.1,47,29.90,-9999.0,North,-9999.0,-,N/A,,Unknown,0,2013-06-15 13:54:00
10:54 AM,66.0,39.9,38,29.89,-9999.0,North,-9999.0,-,N/A,,Unknown,0,2013-06-15 14:54:00
11:54 AM,68.0,37.9,33,29.89,-9999.0,North,-9999.0,-,N/A,,Unknown,0,2013-06-15 15:54:00
12:54 PM,70.0,39.0,32,29.89,-9999.0,North,-9999.0,-,N/A,,Unknown,0,2013-06-15 16:54:00
1:54 PM,71.1,37.9,30,29.89,-9999.0,North,-9999.0,-,N/A,,Unknown,0,2013-06-15 17:54:00
2:54 PM,72.0,39.9,31,29.88,-9999.0,North,-9999.0,-,N/A,,Unknown,0,2013-06-15 18:54:00
3:54 PM,71.1,39.0,31,29.87,-9999.0,North,-9999.0,-,N/A,,Unknown,0,2013-06-15 19:54:00
4:54 PM,71.1,37.9,30,29.86,-9999.0,North,-9999.0,-,N/A,,Unknown,0,2013-06-15 20:54:00
5:54 PM,71.1,39.0,31,29.85,-9999.0,North,-9999.0,-,N/A,,Unknown,0,2013-06-15 21:54:00
6:54 PM,70.0,39.9,33,29.85,-9999.0,North,-9999.0,-,N/A,,Unknown,0,2013-06-15 22:54:00
7:54 PM,68.0,39.9,36,29.86,-9999.0,North,-9999.0,-,N/A,,Unknown,0,2013-06-15 23:54:00
8:54 PM,62.1,45.0,53,29.86,-9999.0,North,-9999.0,-,N/A,,Unknown,0,2013-06-16 00:54:00
9:54 PM,57.9,46.0,65,29.88,-9999.0,North,-9999.0,-,N/A,,Unknown,0,2013-06-16 01:54:00
10:54 PM,54.0,46.9,77,29.89,-9999.0,North,-9999.0,-,N/A,,Unknown,0,2013-06-16 02:54:00
11:54 PM,52.0,46.0,80,29.89,-9999.0,North,-9999.0,-,N/A,,Unknown,0,2013-06-16 03:54:00